• In Uzbekistan
  • List of Countries
  • For 7 days
  • Water Temperature
  • Satellite Maps
  • Weather Map
  • Weather Widgets
  • user-avatar
    Login

    Hourly Weather Biskira

    Today, 30 May, Tuesday

    Time Temperature Precipitation Wind Pressure Humidity
    00:00 +27°C° 0 mm 6 mps 751 mmHg 39%
    01:00 +26°C° 0.2 mm 5 mps 751 mmHg 40%
    02:00 +26°C° 0.2 mm 4 mps 751 mmHg 42%
    03:00 +25°C° 0.2 mm 4 mps 751 mmHg 44%
    04:00 +25°C° 0.1 mm 3 mps 751 mmHg 43%
    05:00 +25°C° 0.1 mm 3 mps 752 mmHg 42%
    06:00 +25°C° 0 mm 3 mps 752 mmHg 42%
    07:00 +26°C° 0.1 mm 3 mps 752 mmHg 38%
    08:00 +27°C° 0.1 mm 3 mps 752 mmHg 34%
    09:00 +28°C° 0.1 mm 3 mps 752 mmHg 31%
    10:00 +29°C° 0.1 mm 3 mps 752 mmHg 28%
    11:00 +30°C° 0.1 mm 3 mps 752 mmHg 26%
    12:00 +31°C° 0.1 mm 3 mps 752 mmHg 23%
    13:00 +33°C° 0 mm 3 mps 752 mmHg 23%
    14:00 +32°C° 0 mm 2 mps 752 mmHg 22%
    15:00 +32°C° 0 mm 2 mps 752 mmHg 22%
    16:00 +32°C° 0.1 mm 2 mps 752 mmHg 24%
    17:00 +31°C° 0.1 mm 2 mps 752 mmHg 26%
    18:00 +31°C° 0.1 mm 3 mps 752 mmHg 29%
    19:00 +30°C° 0 mm 2 mps 752 mmHg 30%
    20:00 +30°C° 0 mm 2 mps 753 mmHg 32%
    21:00 +29°C° 0 mm 2 mps 753 mmHg 34%
    22:00 +29°C° 0 mm 2 mps 753 mmHg 36%
    23:00 +28°C° 0 mm 2 mps 753 mmHg 38%

    Tomorrow, 31 May, Wednesday

    Time Temperature Precipitation Wind Pressure Humidity
    00:00 +28°C° 0 mm 2 mps 753 mmHg 40%
    01:00 +27°C° 0 mm 2 mps 753 mmHg 41%
    02:00 +26°C° 0 mm 2 mps 752 mmHg 42%
    03:00 +26°C° 0 mm 2 mps 752 mmHg 43%
    04:00 +26°C° 0 mm 1 mps 753 mmHg 42%
    05:00 +26°C° 0 mm 1 mps 753 mmHg 40%
    06:00 +27°C° 0 mm 1 mps 753 mmHg 39%
    07:00 +28°C° 0 mm 2 mps 753 mmHg 36%
    08:00 +29°C° 0 mm 2 mps 753 mmHg 33%
    09:00 +30°C° 0 mm 2 mps 753 mmHg 29%
    10:00 +31°C° 0 mm 2 mps 753 mmHg 27%
    11:00 +34°C° 0 mm 3 mps 753 mmHg 25%
    12:00 +35°C° 0 mm 3 mps 753 mmHg 22%
    13:00 +35°C° 0.1 mm 3 mps 752 mmHg 21%
    14:00 +36°C° 0.1 mm 3 mps 752 mmHg 20%
    15:00 +36°C° 0.1 mm 3 mps 752 mmHg 19%
    16:00 +36°C° 0.1 mm 3 mps 752 mmHg 19%
    17:00 +36°C° 0.1 mm 2 mps 752 mmHg 20%
    18:00 +35°C° 0.1 mm 2 mps 752 mmHg 20%
    19:00 +34°C° 0 mm 2 mps 752 mmHg 22%
    20:00 +34°C° 0 mm 2 mps 752 mmHg 24%
    21:00 +33°C° 0 mm 3 mps 753 mmHg 26%
    22:00 +31°C° 0 mm 3 mps 753 mmHg 30%
    23:00 +30°C° 0 mm 3 mps 753 mmHg 33%

    Day after tomorrow, 1 June, Thursday

    Time Temperature Precipitation Wind Pressure Humidity
    00:00 +29°C° 0 mm 3 mps 753 mmHg 37%
    01:00 +29°C° 0 mm 3 mps 753 mmHg 39%
    02:00 +28°C° 0 mm 2 mps 753 mmHg 41%
    03:00 +27°C° 0 mm 1 mps 753 mmHg 43%
    04:00 +28°C° 0 mm 1 mps 753 mmHg 43%
    05:00 +28°C° 0 mm 1 mps 753 mmHg 43%
    06:00 +28°C° 0 mm 1 mps 753 mmHg 42%
    07:00 +30°C° 0 mm 1 mps 753 mmHg 38%
    08:00 +31°C° 0 mm 1 mps 753 mmHg 34%
    09:00 +32°C° 0 mm 1 mps 754 mmHg 30%
    10:00 +35°C° 0 mm 2 mps 753 mmHg 27%
    11:00 +36°C° 0 mm 2 mps 753 mmHg 23%
    12:00 +37°C° 0 mm 3 mps 753 mmHg 20%
    13:00 +38°C° 0 mm 3 mps 752 mmHg 19%
    14:00 +38°C° 0 mm 3 mps 752 mmHg 17%
    15:00 +39°C° 0 mm 3 mps 752 mmHg 16%
    16:00 +40°C° 0 mm 4 mps 752 mmHg 17%
    17:00 +38°C° 0 mm 4 mps 752 mmHg 18%
    18:00 +38°C° 0 mm 4 mps 752 mmHg 18%
    19:00 +36°C° 0 mm 4 mps 752 mmHg 22%
    20:00 +35°C° 0 mm 4 mps 753 mmHg 25%
    21:00 +34°C° 0 mm 4 mps 753 mmHg 28%
    22:00 +33°C° 0 mm 4 mps 753 mmHg 30%
    23:00 +32°C° 0 mm 4 mps 753 mmHg 32%

    2 June, Friday

    Time Temperature Precipitation Wind Pressure Humidity
    00:00 +31°C° 0 mm 3 mps 753 mmHg 34%
    01:00 +30°C° 0 mm 3 mps 753 mmHg 36%
    02:00 +29°C° 0 mm 2 mps 753 mmHg 38%
    03:00 +28°C° 0 mm 2 mps 753 mmHg 40%
    04:00 +29°C° 0 mm 1 mps 753 mmHg 38%
    05:00 +29°C° 0 mm 1 mps 753 mmHg 36%
    06:00 +30°C° 0 mm 1 mps 753 mmHg 35%
    07:00 +31°C° 0 mm 2 mps 753 mmHg 32%
    08:00 +32°C° 0 mm 2 mps 753 mmHg 29%
    09:00 +35°C° 0 mm 3 mps 753 mmHg 26%
    10:00 +36°C° 0 mm 3 mps 753 mmHg 24%
    11:00 +37°C° 0 mm 3 mps 753 mmHg 23%
    12:00 +38°C° 0 mm 4 mps 752 mmHg 21%
    13:00 +38°C° 0 mm 4 mps 752 mmHg 21%
    14:00 +40°C° 0 mm 4 mps 751 mmHg 20%
    15:00 +40°C° 0 mm 4 mps 751 mmHg 20%
    16:00 +40°C° 0 mm 4 mps 751 mmHg 20%
    17:00 +39°C° 0 mm 3 mps 751 mmHg 21%
    18:00 +38°C° 0 mm 3 mps 751 mmHg 22%
    19:00 +37°C° 0 mm 3 mps 751 mmHg 23%
    20:00 +36°C° 0 mm 3 mps 752 mmHg 25%
    21:00 +35°C° 0 mm 2 mps 752 mmHg 27%
    22:00 +35°C° 0 mm 3 mps 752 mmHg 29%
    23:00 +34°C° 0 mm 3 mps 752 mmHg 31%

    3 June, Saturday

    Time Temperature Precipitation Wind Pressure Humidity
    00:00 +33°C° 0 mm 3 mps 752 mmHg 33%
    01:00 +33°C° 0 mm 3 mps 751 mmHg 35%
    02:00 +31°C° 0 mm 3 mps 751 mmHg 37%
    03:00 +30°C° 0 mm 3 mps 751 mmHg 39%
    04:00 +31°C° 0 mm 3 mps 751 mmHg 39%
    05:00 +31°C° 0 mm 3 mps 751 mmHg 38%
    06:00 +31°C° 0 mm 3 mps 751 mmHg 37%
    07:00 +34°C° 0 mm 3 mps 752 mmHg 34%
    08:00 +35°C° 0 mm 3 mps 752 mmHg 31%
    09:00 +36°C° 0 mm 4 mps 752 mmHg 28%
    10:00 +37°C° 0 mm 4 mps 751 mmHg 26%
    11:00 +38°C° 0 mm 4 mps 751 mmHg 24%
    12:00 +40°C° 0 mm 4 mps 750 mmHg 22%
    13:00 +41°C° 0 mm 4 mps 750 mmHg 21%
    14:00 +41°C° 0 mm 4 mps 749 mmHg 20%
    15:00 +42°C° 0 mm 4 mps 749 mmHg 18%
    16:00 +42°C° 0 mm 4 mps 749 mmHg 19%
    17:00 +41°C° 0 mm 4 mps 749 mmHg 19%
    18:00 +40°C° 0 mm 3 mps 748 mmHg 19%
    19:00 +39°C° 0 mm 3 mps 749 mmHg 21%
    20:00 +38°C° 0 mm 3 mps 749 mmHg 22%
    21:00 +37°C° 0 mm 4 mps 750 mmHg 24%
    22:00 +36°C° 0.2 mm 3 mps 750 mmHg 26%
    23:00 +35°C° 0.2 mm 3 mps 750 mmHg 28%

    4 June, Sunday

    Time Temperature Precipitation Wind Pressure Humidity
    00:00 +34°C° 0.2 mm 3 mps 750 mmHg 30%
    01:00 +34°C° 0.3 mm 3 mps 750 mmHg 32%
    02:00 +33°C° 0.3 mm 3 mps 750 mmHg 34%
    03:00 +31°C° 0.3 mm 2 mps 750 mmHg 35%
    04:00 +33°C° 0 mm 3 mps 750 mmHg 36%
    05:00 +33°C° 0 mm 3 mps 750 mmHg 36%
    06:00 +33°C° 0 mm 3 mps 751 mmHg 36%
    07:00 +34°C° 0 mm 3 mps 751 mmHg 33%
    08:00 +35°C° 0 mm 3 mps 751 mmHg 31%
    09:00 +36°C° 0 mm 4 mps 751 mmHg 28%
    10:00 +37°C° 0 mm 3 mps 750 mmHg 26%
    11:00 +38°C° 0 mm 2 mps 750 mmHg 24%
    12:00 +39°C° 0 mm 2 mps 750 mmHg 23%
    13:00 +39°C° 0 mm 2 mps 749 mmHg 21%
    14:00 +40°C° 0 mm 2 mps 749 mmHg 19%
    15:00 +41°C° 0 mm 2 mps 749 mmHg 18%
    16:00 +40°C° 0 mm 3 mps 749 mmHg 19%
    17:00 +40°C° 0 mm 3 mps 749 mmHg 20%
    18:00 +41°C° 0 mm 4 mps 748 mmHg 20%
    19:00 +39°C° 0.3 mm 5 mps 749 mmHg 26%
    20:00 +36°C° 0.3 mm 5 mps 750 mmHg 32%
    21:00 +35°C° 0.3 mm 6 mps 751 mmHg 38%
    22:00 +34°C° 0.4 mm 6 mps 751 mmHg 39%
    23:00 +34°C° 0.4 mm 6 mps 750 mmHg 40%
    Show more